,,PA_Meas_PMT16A,,PR_Meas_QMR101_102,,RH_Meas_QMH101,,SR_Meas_QMS101,,TA_Meas_QMH101,,GenWind,,GenWind,
time,status,PA,status,PR,status,RH,status,SR,status,TA,status,DirAvg,status,SpdAvg,
2011-05-04, 00:00:04,VALID,917.399,VALID,0,VALID,92.0223,VALID,0,VALID,20.7154,VALID,357,VALID,0.0363281,
2011-05-04, 00:01:04,VALID,917.349,VALID,0,VALID,92.1823,VALID,0,VALID,20.6959,VALID,357,VALID,0,
2011-05-04, 00:02:04,VALID,917.252,VALID,0,VALID,93.181,VALID,0.107441,VALID,20.6959,VALID,357,VALID,0.286328,
2011-05-04, 00:03:04,VALID,917.237,VALID,0,VALID,93.6689,VALID,0,VALID,20.6959,VALID,357,VALID,0.321484,
2011-05-04, 00:04:04,VALID,917.219,VALID,0,VALID,93.9052,VALID,0,VALID,20.6959,VALID,357,VALID,0.208984,
2011-05-04, 00:05:04,VALID,917.235,VALID,0,VALID,93.768,VALID,0,VALID,20.6764,VALID,357,VALID,0,
2011-05-04, 00:06:04,VALID,917.227,VALID,0,VALID,93.8747,VALID,0,VALID,20.6959,VALID,357,VALID,0.0253906,
2011-05-04, 00:07:04,VALID,917.235,VALID,0,VALID,93.9052,VALID,0,VALID,20.6943,VALID,357,VALID,0.337891,
2011-05-04, 00:08:04,VALID,917.209,VALID,0,VALID,93.707,VALID,0,VALID,20.7349,VALID,357,VALID,0,
2011-05-04, 00:09:04,VALID,917.182,VALID,0,VALID,93.1429,VALID,0.107441,VALID,20.7349,VALID,357,VALID,0.0015625,
2011-05-04, 00:10:04,VALID,917.172,VALID,0,VALID,93.2039,VALID,0,VALID,20.7934,VALID,357,VALID,0.450391,
2011-05-04, 00:11:04,VALID,917.14,VALID,0,VALID,93.1886,VALID,0.107441,VALID,20.8519,VALID,357,VALID,0.226172,
2011-05-04, 00:12:04,VALID,917.069,VALID,0,VALID,93.0438,VALID,0,VALID,20.8714,VALID,357,VALID,0,
2011-05-04, 00:13:04,VALID,917.005,VALID,0,VALID,90.5814,VALID,0,VALID,20.7934,VALID,357,VALID,0.388281,
2011-05-04, 00:14:04,VALID,917.02,VALID,0,VALID,90.5052,VALID,0.107441,VALID,20.6959,VALID,357,VALID,0.200781,
2011-05-04, 00:15:04,VALID,916.96,VALID,0,VALID,91.8927,VALID,0,VALID,20.6569,VALID,357,VALID,0.391016,
2011-05-04, 00:16:05,VALID,916.948,VALID,0,VALID,92.777,VALID,0,VALID,20.6179,VALID,357,VALID,0.610156,
2011-05-04, 00:17:05,VALID,916.958,VALID,0,VALID,93.6003,VALID,0.107441,VALID,20.6374,VALID,357,VALID,0.275391,
2011-05-04, 00:18:05,VALID,916.971,VALID,0,VALID,93.8976,VALID,0,VALID,20.6374,VALID,357,VALID,0.0207031,
2011-05-04, 00:19:05,VALID,917.013,VALID,0,VALID,93.7604,VALID,0,VALID,20.6179,VALID,357,VALID,0.00195313,
2011-05-04, 00:20:05,VALID,916.978,VALID,0,VALID,93.5012,VALID,0,VALID,20.6374,VALID,357,VALID,0,
2011-05-04, 00:21:05,VALID,916.968,VALID,0,VALID,93.4326,VALID,0,VALID,20.6374,VALID,357,VALID,0,
2011-05-04, 00:22:05,VALID,916.922,VALID,0,VALID,92.7846,VALID,0,VALID,20.6194,VALID,357,VALID,0,
2011-05-04, 00:23:05,VALID,916.895,VALID,0,VALID,92.1137,VALID,0,VALID,20.621,VALID,357,VALID,0.0742188,
2011-05-04, 00:24:05,VALID,916.85,VALID,0,VALID,92.9904,VALID,0,VALID,20.5999,VALID,357,VALID,0.892187,
2011-05-04, 00:25:05,VALID,916.871,VALID,0,VALID,93.2801,VALID,0,VALID,20.5625,VALID,357,VALID,0.976953,
2011-05-04, 00:26:05,VALID,916.908,VALID,0,VALID,93.3182,VALID,0,VALID,20.504,VALID,357,VALID,0.523047,
2011-05-04, 00:27:05,VALID,916.947,VALID,0,VALID,93.6537,VALID,0,VALID,20.4454,VALID,357,VALID,0.609375,
2011-05-04, 00:28:05,VALID,916.965,VALID,0,VALID,94.6218,VALID,0,VALID,20.5024,VALID,357,VALID,1.05273,
2011-05-04, 00:29:05,VALID,916.972,VALID,0,VALID,94.599,VALID,0,VALID,20.5609,VALID,357,VALID,0.551953,
2011-05-04, 00:30:05,VALID,916.971,VALID,0,VALID,94.2102,VALID,0,VALID,20.5625,VALID,357,VALID,0.683203,
2011-05-04, 00:31:05,VALID,916.955,VALID,0,VALID,94.1034,VALID,0,VALID,20.582,VALID,357,VALID,0.676953,
2011-05-04, 00:32:05,VALID,916.951,VALID,0,VALID,93.9129,VALID,0,VALID,20.5625,VALID,357,VALID,0.635938,
2011-05-04, 00:33:05,VALID,916.884,VALID,0,VALID,93.9357,VALID,0,VALID,20.543,VALID,357,VALID,0.637891,
2011-05-04, 00:34:05,VALID,916.856,VALID,0,VALID,93.8519,VALID,0,VALID,20.5024,VALID,357,VALID,1.09453,
2011-05-04, 00:35:05,VALID,916.837,VALID,0,VALID,94.233,VALID,0,VALID,20.5219,VALID,357,VALID,1.02695,
2011-05-04, 00:36:05,VALID,916.857,VALID,0,VALID,94.3169,VALID,0,VALID,20.5235,VALID,357,VALID,0.798437,
2011-05-04, 00:37:05,VALID,916.86,VALID,0,VALID,94.5304,VALID,0,VALID,20.5625,VALID,357,VALID,0.663281,
2011-05-04, 00:38:05,VALID,916.874,VALID,0,VALID,94.599,VALID,0,VALID,20.5414,VALID,357,VALID,0.294141,
2011-05-04, 00:39:05,VALID,916.858,VALID,0,VALID,94.6295,VALID,0,VALID,20.5609,VALID,357,VALID,0.184375,
2011-05-04, 00:40:05,VALID,916.882,VALID,0,VALID,94.6523,VALID,0,VALID,20.5609,VALID,357,VALID,0,
2011-05-04, 00:41:05,VALID,916.837,VALID,0,VALID,94.6066,VALID,0,VALID,20.5804,VALID,357,VALID,0,
2011-05-04, 00:42:05,VALID,916.8,VALID,0,VALID,94.477,VALID,0,VALID,20.5804,VALID,357,VALID,0.315625,
2011-05-04, 00:43:05,VALID,916.776,VALID,0,VALID,94.355,VALID,0,VALID,20.5804,VALID,357,VALID,0.291406,
2011-05-04, 00:44:05,VALID,916.779,VALID,0,VALID,94.3169,VALID,0,VALID,20.5804,VALID,357,VALID,0,
2011-05-04, 00:45:05,VALID,916.792,VALID,0,VALID,94.3169,VALID,0,VALID,20.5804,VALID,357,VALID,0.0015625,
2011-05-04, 00:46:05,VALID,916.797,VALID,0,VALID,94.2864,VALID,0,VALID,20.5804,VALID,357,VALID,0,
2011-05-04, 00:47:05,VALID,916.812,VALID,0,VALID,94.3169,VALID,0,VALID,20.5399,VALID,357,VALID,0,
2011-05-04, 00:48:05,VALID,916.818,VALID,0,VALID,94.3245,VALID,0,VALID,20.5219,VALID,357,VALID,0,
2011-05-04, 00:49:05,VALID,916.834,VALID,0,VALID,94.3931,VALID,0,VALID,20.5219,VALID,357,VALID,0.110156,
2011-05-04, 00:50:05,VALID,916.801,VALID,0,VALID,94.4922,VALID,0,VALID,20.5414,VALID,357,VALID,0.478125,
2011-05-04, 00:51:05,VALID,916.752,VALID,0,VALID,94.3093,VALID,0,VALID,20.5414,VALID,357,VALID,0.487891,
2011-05-04, 00:52:05,VALID,916.727,VALID,0,VALID,94.1111,VALID,0,VALID,20.5024,VALID,357,VALID,0.348828,
2011-05-04, 00:53:05,VALID,916.704,VALID,0,VALID,93.6537,VALID,0,VALID,20.4439,VALID,357,VALID,0.659375,
2011-05-04, 00:54:05,VALID,916.728,VALID,0,VALID,93.8671,VALID,0,VALID,20.4033,VALID,357,VALID,0.723437,
2011-05-04, 00:55:05,VALID,916.744,VALID,0,VALID,94.2864,VALID,0,VALID,20.3838,VALID,357,VALID,0.654688,
2011-05-04, 00:56:05,VALID,916.716,VALID,0,VALID,94.5913,VALID,0,VALID,20.4244,VALID,357,VALID,0.514453,
2011-05-04, 00:57:05,VALID,916.685,VALID,0,VALID,94.9573,VALID,0,VALID,20.4829,VALID,357,VALID,0.407031,
2011-05-04, 00:58:05,VALID,916.673,VALID,0,VALID,95.0411,VALID,0,VALID,20.5609,VALID,357,VALID,0.292188,
2011-05-04, 00:59:05,VALID,916.618,VALID,0,VALID,94.942,VALID,0,VALID,20.5609,VALID,357,VALID,0,
2011-05-04, 01:00:05,VALID,916.571,VALID,0,VALID,94.8658,VALID,0,VALID,20.5999,VALID,357,VALID,0.06875,
2011-05-04, 01:01:05,VALID,916.552,VALID,0,VALID,94.8124,VALID,0,VALID,20.5999,VALID,357,VALID,0.467578,
2011-05-04, 01:02:05,VALID,916.548,VALID,0,VALID,94.6905,VALID,0,VALID,20.5999,VALID,357,VALID,0.24375,
2011-05-04, 01:03:05,VALID,916.535,VALID,0,VALID,94.4694,VALID,0,VALID,20.5804,VALID,357,VALID,0.380078,
2011-05-04, 01:04:05,VALID,916.512,VALID,0,VALID,94.6676,VALID,0,VALID,20.5999,VALID,357,VALID,0.605469,
2011-05-04, 01:05:05,VALID,916.483,VALID,0,VALID,94.7591,VALID,0,VALID,20.5999,VALID,357,VALID,0.510156,
2011-05-04, 01:06:05,VALID,916.451,VALID,0,VALID,94.7362,VALID,0,VALID,20.5789,VALID,357,VALID,0.382031,
2011-05-04, 01:07:05,VALID,916.413,VALID,0,VALID,94.6447,VALID,0,VALID,20.5804,VALID,357,VALID,0.463281,
2011-05-04, 01:08:05,VALID,916.418,VALID,0,VALID,94.7362,VALID,0,VALID,20.5609,VALID,357,VALID,0.742188,
2011-05-04, 01:09:05,VALID,916.409,VALID,0,VALID,94.8582,VALID,0,VALID,20.5609,VALID,357,VALID,0.523828,
2011-05-04, 01:10:05,VALID,916.357,VALID,0,VALID,94.9039,VALID,0,VALID,20.5804,VALID,357,VALID,0.569141,
2011-05-04, 01:11:05,VALID,916.317,VALID,0,VALID,94.8124,VALID,0,VALID,20.5804,VALID,357,VALID,0.640234,
2011-05-04, 01:12:05,VALID,916.267,VALID,0,VALID,94.82,VALID,0,VALID,20.5609,VALID,357,VALID,0.773047,
2011-05-04, 01:13:05,VALID,916.269,VALID,0,VALID,94.7667,VALID,0,VALID,20.5414,VALID,357,VALID,0.61875,
2011-05-04, 01:14:05,VALID,916.301,VALID,0,VALID,94.8734,VALID,0,VALID,20.5609,VALID,357,VALID,0.614453,
2011-05-04, 01:15:05,VALID,916.255,VALID,0,VALID,95.0945,VALID,0,VALID,20.5999,VALID,357,VALID,0.580078,
2011-05-04, 01:16:05,VALID,916.215,VALID,0,VALID,95.0945,VALID,0,VALID,20.6194,VALID,357,VALID,0,
2011-05-04, 01:17:05,VALID,916.174,VALID,0,VALID,95.0869,VALID,0,VALID,20.639,VALID,357,VALID,0.119141,
2011-05-04, 01:18:05,VALID,916.194,VALID,0,VALID,94.9573,VALID,0,VALID,20.6179,VALID,357,VALID,0.434375,
2011-05-04, 01:19:05,VALID,916.169,VALID,0,VALID,94.7972,VALID,0,VALID,20.6194,VALID,357,VALID,0.0644531,
2011-05-04, 01:20:05,VALID,916.143,VALID,0,VALID,94.7286,VALID,0,VALID,20.5999,VALID,357,VALID,0,
2011-05-04, 01:21:05,VALID,916.14,VALID,0,VALID,94.6981,VALID,0,VALID,20.5804,VALID,357,VALID,0.0324219,
2011-05-04, 01:22:05,VALID,916.113,VALID,0,VALID,94.6371,VALID,0,VALID,20.5594,VALID,357,VALID,0,
2011-05-04, 01:23:05,VALID,916.099,VALID,0,VALID,94.5151,VALID,0,VALID,20.5414,VALID,357,VALID,0.295312,
2011-05-04, 01:24:05,VALID,916.052,VALID,0,VALID,94.294,VALID,0,VALID,20.4618,VALID,357,VALID,0.464844,
2011-05-04, 01:25:05,VALID,916.049,VALID,0,VALID,94.3093,VALID,0,VALID,20.4033,VALID,357,VALID,0.251172,
2011-05-04, 01:26:05,VALID,916.075,VALID,0,VALID,94.4846,VALID,0,VALID,20.3643,VALID,357,VALID,0.142969,
2011-05-04, 01:27:05,VALID,916.063,VALID,0,VALID,94.6828,VALID,0.107441,VALID,20.3643,VALID,357,VALID,0,
2011-05-04, 01:28:05,VALID,916.069,VALID,0,VALID,94.8505,VALID,0,VALID,20.3448,VALID,357,VALID,0.100391,
2011-05-04, 01:29:05,VALID,916.061,VALID,0,VALID,94.9192,VALID,0,VALID,20.3448,VALID,357,VALID,0,
2011-05-04, 01:30:05,VALID,916.035,VALID,0,VALID,94.9954,VALID,0,VALID,20.3253,VALID,357,VALID,0,
2011-05-04, 01:31:05,VALID,916.038,VALID,0,VALID,95.0564,VALID,0,VALID,20.3253,VALID,357,VALID,0,
2011-05-04, 01:32:05,VALID,916.035,VALID,0,VALID,95.0716,VALID,0,VALID,20.3058,VALID,357,VALID,0.255859,
2011-05-04, 01:33:05,VALID,915.997,VALID,0,VALID,94.9878,VALID,0,VALID,20.2879,VALID,357,VALID,0,
2011-05-04, 01:34:05,VALID,915.966,VALID,0,VALID,94.9801,VALID,0,VALID,20.2668,VALID,357,VALID,0.150781,
2011-05-04, 01:35:05,VALID,915.982,VALID,0,VALID,95.0411,VALID,0,VALID,20.3074,VALID,357,VALID,0,
2011-05-04, 01:36:05,VALID,915.959,VALID,0,VALID,95.1326,VALID,0,VALID,20.3058,VALID,357,VALID,0.188672,
2011-05-04, 01:37:05,VALID,915.988,VALID,0,VALID,95.2165,VALID,0,VALID,20.3464,VALID,357,VALID,0.188281,
2011-05-04, 01:38:05,VALID,915.989,VALID,0,VALID,95.2241,VALID,0,VALID,20.3659,VALID,357,VALID,0.0988281,
2011-05-04, 01:39:05,VALID,915.955,VALID,0,VALID,95.2317,VALID,0,VALID,20.3643,VALID,357,VALID,0,
2011-05-04, 01:40:05,VALID,915.933,VALID,0,VALID,95.2546,VALID,0,VALID,20.4049,VALID,357,VALID,0.238672,
2011-05-04, 01:41:05,VALID,915.878,VALID,0,VALID,95.2775,VALID,0,VALID,20.4033,VALID,357,VALID,0.108594,
2011-05-04, 01:42:05,VALID,915.836,VALID,0,VALID,95.3232,VALID,0.107441,VALID,20.4423,VALID,357,VALID,0,
2011-05-04, 01:43:05,VALID,915.853,VALID,0,VALID,95.1707,VALID,0,VALID,20.4439,VALID,357,VALID,0.028125,
2011-05-04, 01:44:05,VALID,915.868,VALID,0,VALID,94.8887,VALID,0.107441,VALID,20.3838,VALID,357,VALID,0.0960938,
2011-05-04, 01:45:05,VALID,915.856,VALID,0,VALID,94.7133,VALID,0,VALID,20.4244,VALID,357,VALID,0.202344,
2011-05-04, 01:46:05,VALID,915.871,VALID,0,VALID,94.7819,VALID,0,VALID,20.4033,VALID,357,VALID,0.403516,
2011-05-04, 01:47:05,VALID,915.893,VALID,0,VALID,94.8887,VALID,0.107441,VALID,20.4228,VALID,357,VALID,0.416797,
2011-05-04, 01:48:05,VALID,915.84,VALID,0,VALID,94.9115,VALID,0.107441,VALID,20.4033,VALID,357,VALID,0.192578,
2011-05-04, 01:49:05,VALID,915.82,VALID,0,VALID,94.9878,VALID,0.107441,VALID,20.3838,VALID,357,VALID,0.147656,
2011-05-04, 01:50:05,VALID,915.781,VALID,0,VALID,95.2927,VALID,0.107441,VALID,20.4423,VALID,357,VALID,0.673047,
2011-05-04, 01:51:05,VALID,915.808,VALID,0,VALID,95.4604,VALID,0.107441,VALID,20.4618,VALID,357,VALID,0.155859,
2011-05-04, 01:52:05,VALID,915.807,VALID,0,VALID,95.4833,VALID,0.107441,VALID,20.4813,VALID,357,VALID,0,
2011-05-04, 01:53:05,VALID,915.861,VALID,0,VALID,95.5138,VALID,0,VALID,20.5204,VALID,357,VALID,0,
2011-05-04, 01:54:05,VALID,915.859,VALID,0,VALID,95.4833,VALID,0.107441,VALID,20.5009,VALID,357,VALID,0.132813,
2011-05-04, 01:55:05,VALID,915.832,VALID,0,VALID,95.4452,VALID,0,VALID,20.5204,VALID,357,VALID,0.0792969,
2011-05-04, 01:56:05,VALID,915.823,VALID,0,VALID,95.5443,VALID,0,VALID,20.5399,VALID,357,VALID,0,
2011-05-04, 01:57:05,VALID,915.86,VALID,0,VALID,95.5367,VALID,0.107441,VALID,20.5594,VALID,357,VALID,0.153125,
2011-05-04, 01:58:05,VALID,915.871,VALID,0,VALID,95.4071,VALID,0,VALID,20.5399,VALID,357,VALID,0.329688,
2011-05-04, 01:59:05,VALID,915.872,VALID,0,VALID,95.4299,VALID,0,VALID,20.5609,VALID,357,VALID,0.251953,
2011-05-04, 02:00:05,VALID,915.885,VALID,0,VALID,95.4147,VALID,0,VALID,20.5594,VALID,357,VALID,0.0449219,
2011-05-04, 02:01:05,VALID,915.872,VALID,0,VALID,95.4985,VALID,0,VALID,20.6194,VALID,357,VALID,0.0761719,
2011-05-04, 02:02:05,VALID,915.846,VALID,0,VALID,95.0792,VALID,0,VALID,20.5204,VALID,357,VALID,0.368359,
2011-05-04, 02:03:05,VALID,915.803,VALID,0,VALID,94.9039,VALID,0,VALID,20.5024,VALID,357,VALID,0.344922,
2011-05-04, 02:04:05,VALID,915.779,VALID,0,VALID,94.9954,VALID,0.107441,VALID,20.4813,VALID,357,VALID,0.671484,
2011-05-04, 02:05:05,VALID,915.816,VALID,0,VALID,94.9649,VALID,0.107441,VALID,20.4423,VALID,357,VALID,0.448828,
2011-05-04, 02:06:05,VALID,915.824,VALID,0,VALID,95.2698,VALID,0.107441,VALID,20.4618,VALID,357,VALID,0.251563,
2011-05-04, 02:07:05,VALID,915.864,VALID,0,VALID,95.3766,VALID,0,VALID,20.4423,VALID,357,VALID,0.224219,
2011-05-04, 02:08:05,VALID,915.886,VALID,0,VALID,95.3918,VALID,0,VALID,20.4228,VALID,357,VALID,0.508594,
2011-05-04, 02:09:05,VALID,915.896,VALID,0,VALID,95.3766,VALID,0.107441,VALID,20.3643,VALID,357,VALID,0.596094,
2011-05-04, 02:10:05,VALID,915.852,VALID,0,VALID,95.4528,VALID,0,VALID,20.3253,VALID,357,VALID,0.401563,
2011-05-04, 02:11:05,VALID,915.835,VALID,0,VALID,95.5748,VALID,0,VALID,20.3253,VALID,357,VALID,0.291797,
2011-05-04, 02:12:05,VALID,915.827,VALID,0,VALID,95.7272,VALID,0,VALID,20.3448,VALID,357,VALID,0.314063,
2011-05-04, 02:13:05,VALID,915.825,VALID,0,VALID,95.8187,VALID,0,VALID,20.3464,VALID,357,VALID,0.278125,
2011-05-04, 02:14:05,VALID,915.805,VALID,0,VALID,95.8568,VALID,0,VALID,20.3269,VALID,357,VALID,0.00195313,
2011-05-04, 02:15:05,VALID,915.784,VALID,0,VALID,95.8187,VALID,0,VALID,20.2668,VALID,357,VALID,0.00117188,
2011-05-04, 02:16:05,VALID,915.782,VALID,0,VALID,95.834,VALID,0,VALID,20.2684,VALID,357,VALID,0,
2011-05-04, 02:17:05,VALID,915.829,VALID,0,VALID,95.8873,VALID,0,VALID,20.2668,VALID,357,VALID,0,
2011-05-04, 02:18:05,VALID,915.823,VALID,0,VALID,95.9712,VALID,0,VALID,20.2863,VALID,357,VALID,0,
2011-05-04, 02:19:05,VALID,915.852,VALID,0,VALID,96.0245,VALID,0,VALID,20.3253,VALID,357,VALID,0,
2011-05-04, 02:20:05,VALID,915.806,VALID,0,VALID,95.9407,VALID,0.107441,VALID,20.2668,VALID,357,VALID,0,
2011-05-04, 02:21:05,VALID,915.764,VALID,0,VALID,95.8187,VALID,0,VALID,20.2489,VALID,357,VALID,0,
2011-05-04, 02:22:05,VALID,915.729,VALID,0,VALID,95.6281,VALID,0,VALID,20.1513,VALID,357,VALID,0.451172,
2011-05-04, 02:23:05,VALID,915.727,VALID,0,VALID,95.3537,VALID,0,VALID,20.0913,VALID,357,VALID,0.289063,
2011-05-04, 02:24:05,VALID,915.715,VALID,0,VALID,95.4528,VALID,0,VALID,20.1513,VALID,357,VALID,0.167969,
2011-05-04, 02:25:05,VALID,915.745,VALID,0,VALID,95.3003,VALID,0,VALID,20.0718,VALID,357,VALID,0.23125,
2011-05-04, 02:26:05,VALID,915.708,VALID,0,VALID,94.9878,VALID,0,VALID,19.9743,VALID,357,VALID,0.300781,
2011-05-04, 02:27:05,VALID,915.72,VALID,0,VALID,94.8124,VALID,0,VALID,19.9158,VALID,357,VALID,0.0902344,
2011-05-04, 02:28:05,VALID,915.696,VALID,0,VALID,95.2546,VALID,0,VALID,19.9758,VALID,357,VALID,0.662891,
2011-05-04, 02:29:05,VALID,915.698,VALID,0,VALID,95.5824,VALID,0,VALID,19.9953,VALID,357,VALID,0.835156,
2011-05-04, 02:30:05,VALID,915.709,VALID,0,VALID,95.6586,VALID,0,VALID,19.9353,VALID,357,VALID,0.650391,
2011-05-04, 02:31:05,VALID,915.67,VALID,0,VALID,95.8263,VALID,0.107441,VALID,19.9758,VALID,357,VALID,0.447266,
2011-05-04, 02:32:05,VALID,915.69,VALID,0,VALID,96.116,VALID,0,VALID,20.0328,VALID,357,VALID,0.214062,
2011-05-04, 02:33:05,VALID,915.704,VALID,0,VALID,96.238,VALID,0,VALID,20.0928,VALID,357,VALID,0.453516,
2011-05-04, 02:34:05,VALID,915.718,VALID,0,VALID,96.177,VALID,0,VALID,20.0733,VALID,357,VALID,0.432422,
2011-05-04, 02:35:05,VALID,915.705,VALID,0,VALID,96.2075,VALID,0,VALID,20.0733,VALID,357,VALID,0.0179687,
2011-05-04, 02:36:05,VALID,915.713,VALID,0,VALID,96.2685,VALID,0,VALID,20.0718,VALID,357,VALID,0.0785156,
2011-05-04, 02:37:05,VALID,915.706,VALID,0,VALID,96.36,VALID,0,VALID,20.1108,VALID,357,VALID,0,
2011-05-04, 02:38:05,VALID,915.708,VALID,0,VALID,96.2533,VALID,0,VALID,20.0928,VALID,357,VALID,0.157813,
2011-05-04, 02:39:05,VALID,915.693,VALID,0,VALID,96.2151,VALID,0,VALID,20.0538,VALID,357,VALID,0.248437,
2011-05-04, 02:40:05,VALID,915.693,VALID,0,VALID,96.2151,VALID,0,VALID,20.0538,VALID,357,VALID,0,
2011-05-04, 02:41:05,VALID,915.668,VALID,0,VALID,96.2533,VALID,0,VALID,20.0733,VALID,357,VALID,0.235547,
2011-05-04, 02:42:05,VALID,915.682,VALID,0,VALID,96.2837,VALID,0,VALID,20.1318,VALID,357,VALID,0.262891,
2011-05-04, 02:43:05,VALID,915.669,VALID,0,VALID,96.2914,VALID,0,VALID,20.1513,VALID,357,VALID,0.0734375,
2011-05-04, 02:44:05,VALID,915.67,VALID,0,VALID,96.2685,VALID,0,VALID,20.1708,VALID,357,VALID,0,
2011-05-04, 02:45:05,VALID,915.665,VALID,0,VALID,96.2151,VALID,0,VALID,20.1708,VALID,357,VALID,0.0109375,
2011-05-04, 02:46:05,VALID,915.634,VALID,0,VALID,96.2914,VALID,0,VALID,20.2293,VALID,357,VALID,0.212891,
2011-05-04, 02:47:05,VALID,915.63,VALID,0,VALID,96.3066,VALID,0,VALID,20.2684,VALID,357,VALID,0.296484,
2011-05-04, 02:48:05,VALID,915.626,VALID,0,VALID,96.1465,VALID,0.107441,VALID,20.2293,VALID,357,VALID,0.0046875,
2011-05-04, 02:49:05,VALID,915.617,VALID,0,VALID,96.1465,VALID,0,VALID,20.2098,VALID,357,VALID,0.0449219,
2011-05-04, 02:50:05,VALID,915.629,VALID,0,VALID,96.1313,VALID,0,VALID,20.2278,VALID,357,VALID,0,
2011-05-04, 02:51:05,VALID,915.628,VALID,0,VALID,96.2075,VALID,0,VALID,20.3074,VALID,357,VALID,0.0226563,
2011-05-04, 02:52:05,VALID,915.624,VALID,0,VALID,96.2837,VALID,0,VALID,20.3659,VALID,357,VALID,0.332031,
2011-05-04, 02:53:05,VALID,915.548,VALID,0,VALID,96.3905,VALID,0,VALID,20.5024,VALID,357,VALID,0.6125,
2011-05-04, 02:54:05,VALID,915.488,VALID,0,VALID,96.3524,VALID,0,VALID,20.5414,VALID,357,VALID,0.414844,
2011-05-04, 02:55:05,VALID,915.462,VALID,0,VALID,96.2914,VALID,0,VALID,20.5414,VALID,357,VALID,0.141406,
2011-05-04, 02:56:05,VALID,915.457,VALID,0,VALID,96.2685,VALID,0,VALID,20.5399,VALID,357,VALID,0,
2011-05-04, 02:57:05,VALID,915.446,VALID,0,VALID,96.2304,VALID,0,VALID,20.5609,VALID,357,VALID,0,
2011-05-04, 02:58:05,VALID,915.439,VALID,0,VALID,96.177,VALID,0,VALID,20.5804,VALID,357,VALID,0,
2011-05-04, 02:59:05,VALID,915.428,VALID,0,VALID,95.8797,VALID,0,VALID,20.5024,VALID,357,VALID,0.0714844,
2011-05-04, 03:00:05,VALID,915.406,VALID,0,VALID,95.6434,VALID,0,VALID,20.4244,VALID,357,VALID,0.216797,
2011-05-04, 03:01:05,VALID,915.381,VALID,0,VALID,95.7196,VALID,0,VALID,20.4829,VALID,357,VALID,0,
2011-05-04, 03:02:04,VALID,915.37,VALID,0,VALID,95.7654,VALID,0,VALID,20.5024,VALID,357,VALID,0,
2011-05-04, 03:03:04,VALID,915.366,VALID,0,VALID,95.4909,VALID,0,VALID,20.4244,VALID,357,VALID,0,
2011-05-04, 03:04:04,VALID,915.375,VALID,0,VALID,95.1097,VALID,0,VALID,20.3464,VALID,357,VALID,0.410156,
2011-05-04, 03:05:04,VALID,915.362,VALID,0,VALID,95.4223,VALID,0,VALID,20.3659,VALID,357,VALID,0.386719,
2011-05-04, 03:06:04,VALID,915.337,VALID,0,VALID,95.5214,VALID,0,VALID,20.3659,VALID,357,VALID,0,
2011-05-04, 03:07:04,VALID,915.339,VALID,0,VALID,95.6739,VALID,0,VALID,20.3659,VALID,357,VALID,0.126953,
2011-05-04, 03:08:04,VALID,915.318,VALID,0,VALID,95.8035,VALID,0,VALID,20.4049,VALID,357,VALID,0.000390625,
2011-05-04, 03:09:04,VALID,915.326,VALID,0,VALID,95.8873,VALID,0,VALID,20.4049,VALID,357,VALID,0.437109,
2011-05-04, 03:10:04,VALID,915.366,VALID,0,VALID,96.0245,VALID,0,VALID,20.4829,VALID,357,VALID,0.482031,
2011-05-04, 03:11:04,VALID,915.39,VALID,0,VALID,95.9331,VALID,0,VALID,20.4634,VALID,357,VALID,0.582812,
2011-05-04, 03:12:04,VALID,915.369,VALID,0,VALID,96.0474,VALID,0,VALID,20.4634,VALID,357,VALID,0.467969,
2011-05-04, 03:13:04,VALID,915.34,VALID,0,VALID,96.0779,VALID,0,VALID,20.4829,VALID,357,VALID,0.417578,
2011-05-04, 03:14:04,VALID,915.33,VALID,0,VALID,95.895,VALID,0,VALID,20.4049,VALID,357,VALID,0.521875,
2011-05-04, 03:15:04,VALID,915.325,VALID,0,VALID,95.9559,VALID,0,VALID,20.3854,VALID,357,VALID,0.630859,
2011-05-04, 03:16:04,VALID,915.364,VALID,0,VALID,95.9941,VALID,0,VALID,20.3659,VALID,357,VALID,0.786328,
2011-05-04, 03:17:04,VALID,915.416,VALID,0,VALID,96.116,VALID,0,VALID,20.4049,VALID,357,VALID,0.434766,
2011-05-04, 03:18:04,VALID,915.424,VALID,0,VALID,96.1618,VALID,0,VALID,20.4049,VALID,357,VALID,0.221875,
2011-05-04, 03:19:04,VALID,915.411,VALID,0,VALID,96.2456,VALID,0,VALID,20.4439,VALID,357,VALID,0.138281,
2011-05-04, 03:20:04,VALID,915.383,VALID,0,VALID,96.2685,VALID,0,VALID,20.4829,VALID,357,VALID,0.258203,
2011-05-04, 03:21:04,VALID,915.364,VALID,0,VALID,96.1846,VALID,0,VALID,20.4634,VALID,357,VALID,0.235938,
2011-05-04, 03:22:04,VALID,915.355,VALID,0,VALID,96.1008,VALID,0,VALID,20.4634,VALID,357,VALID,0,
2011-05-04, 03:23:04,VALID,915.335,VALID,0,VALID,96.1008,VALID,0,VALID,20.4634,VALID,357,VALID,0,
2011-05-04, 03:24:04,VALID,915.317,VALID,0,VALID,96.0855,VALID,0,VALID,20.4634,VALID,357,VALID,0,
2011-05-04, 03:25:04,VALID,915.329,VALID,0,VALID,95.9331,VALID,0,VALID,20.4228,VALID,357,VALID,0,
2011-05-04, 03:26:04,VALID,915.339,VALID,0,VALID,95.9026,VALID,0,VALID,20.4439,VALID,357,VALID,0,
2011-05-04, 03:27:04,VALID,915.342,VALID,0,VALID,95.9483,VALID,0,VALID,20.4439,VALID,357,VALID,0,
2011-05-04, 03:28:04,VALID,915.344,VALID,0,VALID,95.9178,VALID,0,VALID,20.4228,VALID,357,VALID,0,
2011-05-04, 03:29:04,VALID,915.341,VALID,0,VALID,95.8721,VALID,0,VALID,20.4439,VALID,357,VALID,0,
2011-05-04, 03:30:04,VALID,915.321,VALID,0,VALID,95.7196,VALID,0,VALID,20.4049,VALID,357,VALID,0,
2011-05-04, 03:31:04,VALID,915.312,VALID,0,VALID,95.7196,VALID,0,VALID,20.4049,VALID,357,VALID,0,
2011-05-04, 03:32:04,VALID,915.31,VALID,0,VALID,95.7425,VALID,0,VALID,20.4033,VALID,357,VALID,0,
2011-05-04, 03:33:04,VALID,915.317,VALID,0,VALID,95.712,VALID,0,VALID,20.3854,VALID,357,VALID,0,
2011-05-04, 03:34:04,VALID,915.327,VALID,0,VALID,95.6586,VALID,0,VALID,20.3464,VALID,357,VALID,0,
2011-05-04, 03:35:04,VALID,915.299,VALID,0,VALID,95.4909,VALID,0,VALID,20.3074,VALID,357,VALID,0.0234375,
2011-05-04, 03:36:04,VALID,915.31,VALID,0,VALID,95.4452,VALID,0,VALID,20.2489,VALID,357,VALID,0.321094,
2011-05-04, 03:37:04,VALID,915.278,VALID,0,VALID,95.5748,VALID,0,VALID,20.2489,VALID,357,VALID,0.193359,
2011-05-04, 03:38:04,VALID,915.259,VALID,0,VALID,95.8263,VALID,0,VALID,20.3074,VALID,357,VALID,0.185937,
2011-05-04, 03:39:04,VALID,915.266,VALID,0,VALID,95.9102,VALID,0,VALID,20.3074,VALID,357,VALID,0.396094,
2011-05-04, 03:40:04,VALID,915.242,VALID,0,VALID,95.8873,VALID,0,VALID,20.2684,VALID,357,VALID,0.153906,
2011-05-04, 03:41:04,VALID,915.162,VALID,0,VALID,95.8492,VALID,0,VALID,20.2684,VALID,357,VALID,0,
2011-05-04, 03:42:04,VALID,915.165,VALID,0,VALID,95.7425,VALID,0,VALID,20.2098,VALID,357,VALID,0.371484,
2011-05-04, 03:43:04,VALID,915.181,VALID,0,VALID,95.9407,VALID,0,VALID,20.2293,VALID,357,VALID,0.598828,
2011-05-04, 03:44:04,VALID,915.203,VALID,0,VALID,95.773,VALID,0,VALID,20.1513,VALID,357,VALID,0.151172,
2011-05-04, 03:45:04,VALID,915.174,VALID,0,VALID,95.6662,VALID,0,VALID,20.0928,VALID,357,VALID,0.590234,
2011-05-04, 03:46:04,VALID,915.159,VALID,0,VALID,95.8035,VALID,0,VALID,20.0538,VALID,357,VALID,0.575391,